Location: Prairie State College
(41.5244°N, 87.6382°W)
Time: 18:08:32
(UTC-05:00)

ISS - All Passes

Search period start: 02 July 2015 00:00
Search period end: 12 July 2015 00:00
Orbit: 398 x 403 km, 51.6° (Epoch: 02 July)

Date Brightness Start Highest point End Pass type
(mag) Time Alt. Az. Time Alt. Az. Time Alt. Az.
02 Jul - 08:34:02 10° S 08:36:41 24° SE 08:39:23 10° E daylight
02 Jul - 10:09:51 10° WSW 10:12:58 41° NNW 10:16:04 10° NE daylight
02 Jul - 11:47:58 10° NW 11:50:01 15° N 11:52:02 10° NNE daylight
02 Jul - 13:25:15 10° NNW 13:27:21 16° N 13:29:29 10° NE daylight
02 Jul - 15:01:12 10° NW 15:04:21 48° NNE 15:07:30 10° ESE daylight
02 Jul - 16:38:06 10° W 16:40:33 20° SW 16:42:57 10° S daylight
03 Jul - 07:42:01 10° SSE 07:43:23 12° SE 07:44:52 10° ESE daylight
03 Jul - 09:16:11 10° WSW 09:19:25 75° NW 09:22:40 10° NE daylight
03 Jul - 10:53:52 10° WNW 10:56:15 18° NNW 10:58:37 10° NNE daylight
03 Jul - 12:31:44 10° NNW 12:33:35 14° N 12:35:26 10° NE daylight
03 Jul - 14:07:50 10° NW 14:10:45 29° NNE 14:13:39 10° E daylight
03 Jul - 15:44:09 10° WNW 15:47:12 38° SW 15:50:13 10° SSE daylight
04 Jul - 08:22:46 10° SW 08:25:57 55° SE 08:29:08 10° ENE daylight
04 Jul - 09:59:46 10° W 10:02:32 25° NNW 10:05:17 10° NE daylight
04 Jul - 11:37:59 10° NW 11:39:46 14° N 11:41:33 10° NNE daylight
04 Jul - 13:14:30 10° NNW 13:17:03 21° NNE 13:19:38 10° ENE daylight
04 Jul - 14:50:31 10° WNW 14:53:46 79° SW 14:57:00 10° SE daylight
05 Jul - 07:29:45 10° SSW 07:32:33 27° SE 07:35:22 10° ENE daylight
05 Jul - 09:05:49 10° W 09:08:52 37° NNW 09:11:56 10° NE daylight
05 Jul - 10:43:58 10° NW 10:45:57 15° N 10:47:54 10° NNE daylight
05 Jul - 12:21:06 10° NNW 12:23:18 17° NNE 12:25:30 10° NE daylight
05 Jul - 13:57:03 10° NW 14:00:15 54° NNE 14:03:25 10° ESE daylight
05 Jul - 15:34:09 10° W 15:36:23 17° SW 15:38:33 10° S daylight
06 Jul - 06:37:24 10° SSE 06:39:11 14° SE 06:41:04 10° E daylight
06 Jul - 08:12:02 10° WSW 08:15:16 65° NNW 08:18:30 10° NE daylight
06 Jul - 09:49:50 10° WNW 09:52:09 18° NNW 09:54:27 10° NNE daylight
06 Jul - 11:27:35 10° NNW 11:29:29 14° N 11:31:23 10° NE daylight
06 Jul - 13:03:39 10° NW 13:06:37 32° NNE 13:09:35 10° E daylight
06 Jul - 14:40:03 10° WNW 14:43:01 33° SW 14:45:57 10° SSE daylight
07 Jul - 07:18:31 10° SW 07:21:44 65° SE 07:24:58 10° ENE daylight
07 Jul - 08:55:42 10° WNW 08:58:23 23° NNW 09:01:03 10° NE daylight
07 Jul - 10:33:51 10° NNW 10:35:38 14° N 10:37:25 10° NNE daylight
07 Jul - 12:10:15 10° NW 12:12:54 22° NNE 12:15:33 10° ENE daylight
07 Jul - 13:46:20 10° WNW 13:49:33 68° SW 13:52:46 10° SE daylight
08 Jul - 06:25:22 10° SSW 06:28:17 31° SE 06:31:14 10° ENE daylight
08 Jul - 08:01:40 10° W 08:04:39 33° NNW 08:07:40 10° NE daylight
08 Jul - 09:39:51 10° NW 09:41:47 15° N 09:43:42 10° NNE daylight
08 Jul - 11:16:51 10° NNW 11:19:07 17° NNE 11:21:24 10° ENE daylight
08 Jul - 12:52:48 10° NW 12:56:01 62° NNE 12:59:13 10° ESE daylight
08 Jul - 14:30:08 10° W 14:32:06 15° SW 14:33:58 10° SSW daylight
09 Jul - 05:32:47 10° S 05:34:53 16° SE 05:37:03 10° E daylight
09 Jul - 07:07:48 10° WSW 07:11:00 57° NNW 07:14:13 10° NE daylight
09 Jul - 08:45:42 10° WNW 08:47:56 17° NNW 08:50:09 10° NNE daylight
09 Jul - 10:23:20 10° NNW 10:25:16 15° N 10:27:13 10° NE daylight
09 Jul - 11:59:20 10° NW 12:02:22 35° NNE 12:05:24 10° E daylight
09 Jul - 13:35:50 10° WNW 13:38:42 28° SW 13:41:32 10° SSE daylight
10 Jul - 06:14:11 10° SW 06:17:26 75° SE 06:20:41 10° ENE daylight
10 Jul - 07:51:30 10° WNW 07:54:07 22° NNW 07:56:42 10° NE daylight
10 Jul - 09:29:36 10° NNW 09:31:24 14° N 09:33:11 10° NE daylight
10 Jul - 11:05:55 10° NW 11:08:38 24° NNE 11:11:22 10° ENE daylight
10 Jul - 12:42:02 10° WNW 12:45:14 58° SW 12:48:25 10° SE daylight
11 Jul - 05:20:54 10° SSW 05:23:55 36° SE 05:26:58 10° ENE daylight
11 Jul - 06:57:24 10° W 07:00:21 30° NNW 07:03:17 10° NE daylight
11 Jul - 08:35:37 10° NW 08:37:29 14° N 08:39:22 10° NNE daylight
11 Jul - 10:12:29 10° NNW 10:14:49 18° NNE 10:17:11 10° ENE daylight
11 Jul - 11:48:25 10° NW 11:51:40 71° NNE 11:54:54 10° ESE daylight
11 Jul - 13:26:05 10° W 13:27:43 13° SW 13:29:13 10° SSW daylight
